SCP
-0 -0 -0 -0 -0 0 0 0 0 0 0 0 0 0 0 0 0 0 0 0 0 0 0 0 0 0 0 0 0 0 0 0 0 0 0 0 0 0 0 0 0 0 0 0 0
0 -0 -0 -0 -0 -0 0 0 0 0 0 0 0 0 0 0 -0 0 0 0 0 0 0 0 0 0 0 0 0 0 0 0 0 0 0 0 0 0 0 0 0 0 0 0 0
0 0 -0 -0 -0 0 0 0 0 0 0 0 0 0 0 0 0 -0 0 0 0 0 0 0 0 0 0 0 0 0 0 0 0 0 0 0 0 0 0 -0 0 0 0 0 0
0 0 0 0 0 0 0 0 0 0 0 0 0 0 0 0 0 0 0 0 0 0 0 0 0 0 0 0 0 0 0 0 0 0 0 0 0 0 0 0 0 0 0 0 0
0 0 0 0 0 0 0 0 0 0 0 0 0 0 0 0 0 0 0 0 0 0 0 0 0 0 0 0 0 0 0 0 0 0 0 0 0 0 0 0 0 0 0 0 0
0 0 0 0 0 0 0 0 0 0 0 0 0 0 0 0 0 0 0 0 0 0 0 0 0 0 0 0 0 0 0 0 0 0 0 0 0 0 0 0 0 0 0 0 0
0 0 0 0 0 0 0 0 0 0 0 0 0 0 0 0 0 0 0 0 0 0 0 0 0 0 0 0 0 0 0 0 0 0 0 0 0 0 0 0 0 0 0 0 0
0 -0 0 0 0 0 0 0 0 0 0 0 0 0 0 0 0 0 0 0 0 0 0 0 0 0 0 0 0 0 0 0 0 0 0 0 0 0 0 0 0 0 0 0 0
0 -0 0 0 0 0 0 0 0 0 0 0 0 0 0 0 0 0 0 0 0 0 0 0 0 0 0 0 0 0 0 0 0 0 0 0 0 0 0 0 0 -0 -0 -0 -0
0 0 -0 0 0 0 0 0 0 0 0 0 0 0 0 0 0 0 0 0 0 0 0 0 0 0 0 0 0 0 0 0 0 0 0 0 0 0 0 -0 0 0 0 0 -0
0 0 0 0 0 0 0 0 0 0 0 0 0 0 0 0 0 0 0 0 0 0 0 0 0 0 0 0 0 0 0 0 0 0 0 0 0 0 0 0 0 0 0 0 0
0 0 0 0 0 0 0 0 0 0 0 0 0 0 0 0 0 0 0 0 0 0 0 0 0 0 0 0 0 0 0 0 0 0 -0 0 0 0 0 0 0 0 0 0 0
0 0 0 0 0 0 0 0 0 0 0 0 0 0 0 0 0 0 0 0 0 0 0 0 0 0 0 0 0 0 0 0 0 0 -0 -0 -0 0 0 0 0 0 0 0 0
0 0 0 0 0 0 0 0 0 0 0 0 0 0 0 0 0 0 0 0 0 0 0 0 0 0 0 0 0 0 0 0 0 0 0 0 -0 0 0 0 0 0 0 0 0
0 0 0 0 0 0 0 0 0 0 0 0 0 0 0 0 0 0 0 0 0 0 0 0 0 0 0 0 0 0 0 0 0 0 0 0 0 -0 0 0 0 0 0 0 0
0 0 0 0 0 0 0 0 0 0 0 0 0 0 0 0 0 0 0 0 0 0 0 0 0 0 0 0 0 0 0 0 0 0 0 0 0 -0 -0 0 0 0 0 0 0
0 0 0 0 0 0 0 0 0 0 0 0 0 0 0 0 0 0 0 0 0 0 0 0 0 0 0 0 0 0 0 0 0 0 0 0 0 0 0 0 0 0 0 0 0
0 0 0 0 0 0 0 0 0 0 0 0 0 0 0 0 0 0 0 0 0 0 0 0 0 0 0 0 0 0 0 0 0 0 0 0 0 0 0 0 0 0 0 0 0
0 0 0 0 0 0 0 0 0 0 0 0 0 0 0 0 0 0 0 0 0 0 0 0 0 0 0 0 0 0 0 0 0 0 0 0 0 0 0 0 0 0 0 0 0
-0 0 0 0 0 0 0 0 0 0 0 0 0 0 0 0 0 0 0 0 0 0 0 0 0 0 0 0 0 0 0 0 0 0 0 0 0 0 0 0 0 0 0 0 0
-0 0 0 0 0 0 0 0 0 0 0 0 0 0 0 0 0 0 0 0 0 0 0 0 0 0 0 0 0 0 0 0 0 0 0 0 0 0 0 0 0 0 0 0 0
-0 0 0 0 0 0 0 0 0 0 0 0 0 0 0 0 0 0 0 0 0 0 0 0 0 0 0 0 0 0 0 0 0 0 0 0 0 0 0 0 0 0 0 0 0
-0 0 0 0 0 0 0 0 0 0 0 0 0 0 0 0 0 0 0 0 0 0 0 0 0 0 0 0 0 0 0 0 0 0 0 0 0 0 0 0 0 0 0 0 0
0 0 0 0 0 0 0 0 0 0 0 0 0 0 0 0 0 0 0 0 0 0 0 0 0 0 0 0 0 0 0 0 0 0 0 0 0 0 0 0 0 0 0 0 0
0 0 0 0 0 0 0 0 0 0 0 0 0 0 0 0 0 0 0 0 0 0 0 0 0 0 0 0 0 0 0 0 0 0 0 0 0 0 0 0 0 0 0 0 0
0 0 0 0 0 0 0 0 0 0 0 0 0 0 0 0 0 0 0 0 0 0 0 0 0 0 0 0 0 0 0 0 0 0 0 0 0 0 0 0 0 0 0 0 0
0 0 0 0 0 0 0 0 0 0 0 0 0 0 0 0 0 0 0 0 0 0 0 0 0 0 0 0 0 0 0 0 0 0 0 0 0 0 0 0 0 0 -0 -0 -0
Wind_Speed_500mb
30 19 15 6 7 11 13 10 2 3 6 10 14 15 22 19 20 31 39 27 28 16 31 31 29 27 25 20 12 9 5 5 8 11 7 4 3 1 5 9 12 12 20 18 15
48 30 23 14 10 9 11 15 12 4 6 9 13 14 17 19 22 40 21 22 25 27 34 37 35 32 16 14 12 7 7 16 7 6 3 5 3 7 6 8 13 27 34 34 26
19 41 34 26 23 21 18 16 14 15 8 5 5 10 12 16 21 13 26 23 31 30 27 30 30 29 10 14 14 11 10 9 5 9 8 6 9 7 5 12 29 24 19 17 28
18 22 35 37 30 28 23 21 19 17 12 12 6 8 9 13 11 3 13 33 34 36 31 31 37 17 12 11 17 5 11 8 2 4 4 6 9 13 26 39 43 39 28 30 29
27 10 25 39 40 35 32 27 22 21 13 9 8 7 8 11 16 5 16 33 36 33 34 33 41 15 10 10 9 2 6 12 19 17 17 19 22 20 51 65 58 54 53 50 39
36 22 17 27 47 45 34 31 25 18 14 9 9 7 10 9 10 12 13 33 32 33 36 31 23 13 9 6 9 9 11 12 16 17 12 8 7 1 21 16 17 16 19 20 30
36 36 25 21 31 39 34 30 30 21 16 11 11 7 14 17 12 12 16 24 30 30 34 32 13 16 13 8 7 2 9 10 10 4 9 5 13 20 54 36 35 32 22 18 25
35 39 43 29 26 27 33 23 19 16 13 8 7 5 10 10 16 15 18 20 24 25 25 30 17 11 4 4 9 3 6 5 3 7 1 6 19 16 16 11 27 25 28 36 40
28 29 47 46 31 28 26 22 18 13 9 7 9 5 6 8 15 18 18 19 24 21 18 26 16 7 6 9 5 7 5 4 14 3 4 5 14 10 1 16 58 65 68 63 60
24 30 37 53 45 31 26 21 16 12 12 10 15 7 8 6 12 23 22 21 17 23 19 14 7 6 5 7 10 8 6 8 8 4 1 7 24 31 53 40 64 68 73 69 60
22 23 34 30 45 50 30 11 10 7 19 12 8 5 12 12 14 21 26 27 22 14 9 5 7 14 10 9 5 8 5 3 3 4 6 10 19 37 38 44 53 54 60 45 29
13 25 30 27 25 44 37 15 11 10 4 21 26 16 12 16 9 23 29 13 11 8 9 9 12 10 9 7 3 4 5 7 8 5 2 12 35 37 31 30 38 42 32 30 27
18 20 24 17 14 28 36 33 15 6 4 10 19 18 23 21 8 32 35 14 7 9 9 10 3 12 15 8 9 5 9 6 9 10 3 13 18 14 10 11 22 25 25 17 11
12 14 12 9 10 19 29 36 23 11 7 10 12 15 28 20 7 25 40 12 4 14 15 7 4 10 7 7 11 6 12 10 5 6 6 8 11 13 13 23 8 24 19 11 11
4 10 8 8 12 27 21 35 34 21 4 5 6 7 26 26 24 13 41 11 14 12 12 10 8 8 8 11 15 10 8 10 5 7 5 7 4 15 8 15 11 16 30 14 14
11 12 6 15 20 24 29 38 29 10 12 5 7 7 10 5 5 12 13 8 10 8 4 4 1 7 11 4 10 15 10 12 9 5 3 7 8 10 6 7 14 14 38 24 14
17 13 3 23 23 29 34 32 8 10 9 8 7 8 7 7 8 5 13 11 11 9 8 2 5 3 5 10 7 4 10 4 8 5 10 3 4 19 16 22 13 15 37 26 10
15 12 12 17 28 35 41 7 10 8 9 5 7 12 9 9 4 7 14 10 7 7 6 12 5 16 11 12 15 12 11 11 13 7 6 6 11 9 6 24 48 49 38 29 18
7 10 16 14 28 28 13 3 13 11 6 12 8 7 5 4 7 7 13 14 15 15 7 9 8 1 3 4 8 10 8 9 12 5 6 7 14 4 13 27 43 56 64 58 33
6 8 26 7 20 18 3 5 3 6 12 6 6 1 9 10 7 10 16 2 5 17 3 3 2 5 3 4 6 6 12 7 5 5 8 7 9 11 19 27 29 38 52 63 48
4 7 18 5 15 8 2 5 2 9 19 9 4 6 7 7 7 7 10 6 8 4 12 12 6 5 3 10 14 5 5 4 8 8 9 4 10 6 8 12 18 29 46 52 54
8 6 21 10 10 5 4 4 6 13 26 11 7 9 7 6 5 4 7 8 11 4 10 5 6 7 13 4 2 2 11 11 8 8 7 3 7 9 10 13 23 31 40 50 52
9 7 22 7 7 3 4 9 13 15 13 13 10 11 6 6 4 4 8 10 15 6 6 11 6 4 3 3 6 8 9 6 7 5 12 10 7 9 11 17 30 34 46 52 55
7 6 17 26 10 10 7 9 6 27 9 11 13 11 6 6 10 7 10 11 15 21 15 17 6 5 4 3 2 8 8 12 10 5 10 12 9 13 10 16 25 36 41 45 53
11 5 5 6 13 9 7 3 4 10 18 28 10 16 8 8 6 7 12 10 18 27 7 5 3 1 3 5 6 6 3 7 25 18 14 7 6 6 9 9 16 23 33 46 54
10 7 11 11 7 11 13 8 6 5 10 10 9 9 15 10 5 5 7 11 8 14 11 9 4 4 6 3 8 6 9 9 5 7 9 1 5 5 10 13 24 31 33 37 44
21 20 9 23 7 8 6 7 8 5 9 14 4 4 13 3 9 14 9 8 4 6 10 9 6 5 5 9 4 5 10 11 4 13 7 7 7 11 7 15 19 21 23 28 35
Wind_Direction_500mb
253 260 262 294 234 273 297 290 196 156 196 228 246 247 255 259 242 243 240 236 221 207 194 195 186 173 170 177 168 163 82 211 234 172 234 293 320 196 235 247 243 227 249 258 269
236 246 242 216 217 217 266 284 278 302 326 205 224 249 252 267 265 249 228 234 215 204 197 194 181 170 168 178 175 152 158 212 215 206 264 308 276 302 306 255 261 257 258 262 261
230 237 230 224 226 219 231 246 271 275 269 306 250 237 260 272 295 268 237 220 199 182 189 186 183 170 155 166 194 179 211 204 238 253 281 280 277 255 247 273 250 255 278 276 260
214 198 220 230 228 226 233 239 237 248 266 265 299 297 255 235 212 261 202 196 192 190 186 185 177 182 156 176 193 165 250 233 293 195 248 257 289 283 234 255 276 285 279 276 266
267 241 194 209 223 227 220 223 225 232 243 262 271 289 225 228 254 238 173 189 187 189 188 180 182 172 170 188 118 172 255 224 245 270 266 264 257 260 270 276 278 272 267 269 262
272 265 236 216 204 225 221 229 221 226 224 238 255 244 204 236 228 216 174 190 191 192 190 188 199 188 149 169 170 220 231 265 270 256 238 231 265 182 272 284 280 273 272 270 260
260 271 257 229 218 202 219 223 230 227 238 239 258 242 239 237 206 191 171 184 189 191 193 192 200 184 153 170 211 221 308 307 229 237 217 175 289 232 266 277 277 270 264 268 280
245 268 251 244 219 209 207 207 213 218 222 233 255 262 241 214 194 185 170 168 172 182 194 189 179 157 133 132 38 53 39 341 353 130 352 152 269 274 315 251 283 283 272 280 279
244 259 253 243 244 219 200 198 199 225 222 226 277 230 263 225 198 179 162 167 159 162 162 176 160 135 125 87 18 15 230 224 319 179 123 186 277 267 20 305 296 291 288 288 287
252 254 272 254 246 241 224 193 197 221 230 263 247 271 235 207 182 186 175 163 152 157 130 148 126 96 74 129 215 176 208 242 256 360 268 245 266 275 288 297 286 289 289 292 292
243 240 268 271 235 245 230 172 166 212 219 219 174 143 136 150 158 177 165 157 140 160 144 121 128 204 178 171 109 131 159 288 272 7 289 253 278 285 290 279 278 281 291 293 292
237 237 267 287 245 229 220 192 183 139 247 238 240 216 167 164 141 173 166 159 145 152 115 60 241 171 138 190 211 9 32 281 278 320 269 340 295 282 275 263 268 285 288 290 294
241 263 279 289 275 216 203 196 184 195 44 263 230 216 191 192 200 184 178 155 115 121 167 159 243 152 141 146 169 217 201 222 224 331 47 325 293 329 307 288 295 292 289 287 312
262 279 307 302 191 166 175 184 166 192 61 261 217 215 193 189 233 184 180 154 102 166 160 236 273 110 131 196 137 209 200 181 204 68 245 19 288 308 309 308 329 5 359 296 320
304 327 331 156 139 157 162 162 150 156 23 246 157 188 167 169 142 165 175 162 159 172 129 238 141 154 138 203 164 226 124 140 98 104 4 340 72 272 304 301 351 17 22 358 339
350 344 341 152 153 163 158 147 140 62 244 158 132 140 131 120 73 107 156 141 126 107 37 206 323 161 187 73 155 154 84 59 58 80 4 268 134 288 275 20 316 325 355 337 326
344 340 43 149 163 165 169 150 70 137 298 182 162 154 149 132 108 111 157 166 152 120 193 347 216 164 150 88 42 105 93 350 352 9 225 335 87 246 324 323 311 330 348 1 339
37 65 81 154 163 169 177 96 109 239 219 139 110 130 166 128 134 133 130 189 230 92 122 159 264 174 189 177 175 190 152 158 203 203 260 100 229 241 27 24 21 18 28 29 27
61 47 44 139 177 189 163 118 200 208 260 157 77 108 151 128 119 138 167 182 192 183 199 154 263 349 97 128 128 183 199 162 106 39 50 223 279 252 29 11 14 7 11 22 23
84 48 33 131 192 170 70 150 146 16 327 305 128 123 163 162 140 178 168 339 210 183 164 76 161 22 354 112 41 161 165 85 7 172 232 268 277 254 1 353 359 9 6 15 34
101 77 24 51 176 96 117 134 62 351 359 33 97 107 131 147 152 168 183 39 1 7 173 109 47 338 137 210 169 136 188 83 142 170 181 155 253 25 24 5 352 6 13 15 34
78 50 16 127 80 13 78 11 37 359 23 23 56 72 46 124 125 126 147 32 336 4 133 57 134 183 205 218 289 320 207 170 155 222 236 146 267 96 84 44 19 14 16 25 38
73 60 25 96 109 59 343 28 53 18 27 21 43 23 16 56 90 74 97 27 37 84 123 149 175 104 11 19 13 217 199 184 119 102 203 147 238 129 69 50 28 21 21 26 31
85 45 35 55 61 112 83 7 64 26 61 21 15 29 40 74 42 63 42 6 56 23 16 171 171 205 200 106 337 190 201 182 173 192 222 223 150 212 35 30 21 20 26 29 29
58 80 50 12 24 53 94 159 41 22 7 28 34 26 24 58 61 50 12 356 54 5 60 55 103 115 283 279 345 346 325 207 209 224 218 298 211 53 48 40 32 30 29 30 27
89 100 84 27 24 39 16 347 75 75 49 342 85 356 38 80 49 83 341 18 37 337 23 344 56 36 303 236 229 244 234 273 313 306 285 255 147 36 87 51 37 29 29 28 23
68 75 84 10 16 63 343 32 57 98 53 58 236 40 52 68 294 283 282 292 290 358 353 7 357 41 285 341 302 231 6 324 34 39 345 255 39 17 39 54 41 34 35 25 15
Wind_Speed_850mb
30 19 15 6 7 11 13 10 2 3 6 10 14 15 22 19 20 31 39 27 28 16 31 31 29 27 25 20 12 9 5 5 8 11 7 4 3 1 5 9 12 12 20 18 15
48 30 23 14 10 9 11 15 12 4 6 9 13 14 17 19 22 40 21 22 25 27 34 37 35 32 16 14 12 7 7 16 7 6 3 5 3 7 6 8 13 27 34 34 26
19 41 34 26 23 21 18 16 14 15 8 5 5 10 12 16 21 13 26 23 31 30 27 30 30 29 10 14 14 11 10 9 5 9 8 6 9 7 5 12 29 24 19 17 28
18 22 35 37 30 28 23 21 19 17 12 12 6 8 9 13 11 3 13 33 34 36 31 31 37 17 12 11 17 5 11 8 2 4 4 6 9 13 26 39 43 39 28 30 29
27 10 25 39 40 35 32 27 22 21 13 9 8 7 8 11 16 5 16 33 36 33 34 33 41 15 10 10 9 2 6 12 19 17 17 19 22 20 51 65 58 54 53 50 39
36 22 17 27 47 45 34 31 25 18 14 9 9 7 10 9 10 12 13 33 32 33 36 31 23 13 9 6 9 9 11 12 16 17 12 8 7 1 21 16 17 16 19 20 30
36 36 25 21 31 39 34 30 30 21 16 11 11 7 14 17 12 12 16 24 30 30 34 32 13 16 13 8 7 2 9 10 10 4 9 5 13 20 54 36 35 32 22 18 25
35 39 43 29 26 27 33 23 19 16 13 8 7 5 10 10 16 15 18 20 24 25 25 30 17 11 4 4 9 3 6 5 3 7 1 6 19 16 16 11 27 25 28 36 40
28 29 47 46 31 28 26 22 18 13 9 7 9 5 6 8 15 18 18 19 24 21 18 26 16 7 6 9 5 7 5 4 14 3 4 5 14 10 1 16 58 65 68 63 60
24 30 37 53 45 31 26 21 16 12 12 10 15 7 8 6 12 23 22 21 17 23 19 14 7 6 5 7 10 8 6 8 8 4 1 7 24 31 53 40 64 68 73 69 60
22 23 34 30 45 50 30 11 10 7 19 12 8 5 12 12 14 21 26 27 22 14 9 5 7 14 10 9 5 8 5 3 3 4 6 10 19 37 38 44 53 54 60 45 29
13 25 30 27 25 44 37 15 11 10 4 21 26 16 12 16 9 23 29 13 11 8 9 9 12 10 9 7 3 4 5 7 8 5 2 12 35 37 31 30 38 42 32 30 27
18 20 24 17 14 28 36 33 15 6 4 10 19 18 23 21 8 32 35 14 7 9 9 10 3 12 15 8 9 5 9 6 9 10 3 13 18 14 10 11 22 25 25 17 11
12 14 12 9 10 19 29 36 23 11 7 10 12 15 28 20 7 25 40 12 4 14 15 7 4 10 7 7 11 6 12 10 5 6 6 8 11 13 13 23 8 24 19 11 11
4 10 8 8 12 27 21 35 34 21 4 5 6 7 26 26 24 13 41 11 14 12 12 10 8 8 8 11 15 10 8 10 5 7 5 7 4 15 8 15 11 16 30 14 14
11 12 6 15 20 24 29 38 29 10 12 5 7 7 10 5 5 12 13 8 10 8 4 4 1 7 11 4 10 15 10 12 9 5 3 7 8 10 6 7 14 14 38 24 14
17 13 3 23 23 29 34 32 8 10 9 8 7 8 7 7 8 5 13 11 11 9 8 2 5 3 5 10 7 4 10 4 8 5 10 3 4 19 16 22 13 15 37 26 10
15 12 12 17 28 35 41 7 10 8 9 5 7 12 9 9 4 7 14 10 7 7 6 12 5 16 11 12 15 12 11 11 13 7 6 6 11 9 6 24 48 49 38 29 18
7 10 16 14 28 28 13 3 13 11 6 12 8 7 5 4 7 7 13 14 15 15 7 9 8 1 3 4 8 10 8 9 12 5 6 7 14 4 13 27 43 56 64 58 33
6 8 26 7 20 18 3 5 3 6 12 6 6 1 9 10 7 10 16 2 5 17 3 3 2 5 3 4 6 6 12 7 5 5 8 7 9 11 19 27 29 38 52 63 48
4 7 18 5 15 8 2 5 2 9 19 9 4 6 7 7 7 7 10 6 8 4 12 12 6 5 3 10 14 5 5 4 8 8 9 4 10 6 8 12 18 29 46 52 54
8 6 21 10 10 5 4 4 6 13 26 11 7 9 7 6 5 4 7 8 11 4 10 5 6 7 13 4 2 2 11 11 8 8 7 3 7 9 10 13 23 31 40 50 52
9 7 22 7 7 3 4 9 13 15 13 13 10 11 6 6 4 4 8 10 15 6 6 11 6 4 3 3 6 8 9 6 7 5 12 10 7 9 11 17 30 34 46 52 55
7 6 17 26 10 10 7 9 6 27 9 11 13 11 6 6 10 7 10 11 15 21 15 17 6 5 4 3 2 8 8 12 10 5 10 12 9 13 10 16 25 36 41 45 53
11 5 5 6 13 9 7 3 4 10 18 28 10 16 8 8 6 7 12 10 18 27 7 5 3 1 3 5 6 6 3 7 25 18 14 7 6 6 9 9 16 23 33 46 54
10 7 11 11 7 11 13 8 6 5 10 10 9 9 15 10 5 5 7 11 8 14 11 9 4 4 6 3 8 6 9 9 5 7 9 1 5 5 10 13 24 31 33 37 44
21 20 9 23 7 8 6 7 8 5 9 14 4 4 13 3 9 14 9 8 4 6 10 9 6 5 5 9 4 5 10 11 4 13 7 7 7 11 7 15 19 21 23 28 35
Wind_Direction_850mb
253 260 262 294 234 273 297 290 196 156 196 228 246 247 255 259 242 243 240 236 221 207 194 195 186 173 170 177 168 163 82 211 234 172 234 293 320 196 235 247 243 227 249 258 269
236 246 242 216 217 217 266 284 278 302 326 205 224 249 252 267 265 249 228 234 215 204 197 194 181 170 168 178 175 152 158 212 215 206 264 308 276 302 306 255 261 257 258 262 261
230 237 230 224 226 219 231 246 271 275 269 306 250 237 260 272 295 268 237 220 199 182 189 186 183 170 155 166 194 179 211 204 238 253 281 280 277 255 247 273 250 255 278 276 260
214 198 220 230 228 226 233 239 237 248 266 265 299 297 255 235 212 261 202 196 192 190 186 185 177 182 156 176 193 165 250 233 293 195 248 257 289 283 234 255 276 285 279 276 266
267 241 194 209 223 227 220 223 225 232 243 262 271 289 225 228 254 238 173 189 187 189 188 180 182 172 170 188 118 172 255 224 245 270 266 264 257 260 270 276 278 272 267 269 262
272 265 236 216 204 225 221 229 221 226 224 238 255 244 204 236 228 216 174 190 191 192 190 188 199 188 149 169 170 220 231 265 270 256 238 231 265 182 272 284 280 273 272 270 260
260 271 257 229 218 202 219 223 230 227 238 239 258 242 239 237 206 191 171 184 189 191 193 192 200 184 153 170 211 221 308 307 229 237 217 175 289 232 266 277 277 270 264 268 280
245 268 251 244 219 209 207 207 213 218 222 233 255 262 241 214 194 185 170 168 172 182 194 189 179 157 133 132 38 53 39 341 353 130 352 152 269 274 315 251 283 283 272 280 279
244 259 253 243 244 219 200 198 199 225 222 226 277 230 263 225 198 179 162 167 159 162 162 176 160 135 125 87 18 15 230 224 319 179 123 186 277 267 20 305 296 291 288 288 287
252 254 272 254 246 241 224 193 197 221 230 263 247 271 235 207 182 186 175 163 152 157 130 148 126 96 74 129 215 176 208 242 256 360 268 245 266 275 288 297 286 289 289 292 292
243 240 268 271 235 245 230 172 166 212 219 219 174 143 136 150 158 177 165 157 140 160 144 121 128 204 178 171 109 131 159 288 272 7 289 253 278 285 290 279 278 281 291 293 292
237 237 267 287 245 229 220 192 183 139 247 238 240 216 167 164 141 173 166 159 145 152 115 60 241 171 138 190 211 9 32 281 278 320 269 340 295 282 275 263 268 285 288 290 294
241 263 279 289 275 216 203 196 184 195 44 263 230 216 191 192 200 184 178 155 115 121 167 159 243 152 141 146 169 217 201 222 224 331 47 325 293 329 307 288 295 292 289 287 312
262 279 307 302 191 166 175 184 166 192 61 261 217 215 193 189 233 184 180 154 102 166 160 236 273 110 131 196 137 209 200 181 204 68 245 19 288 308 309 308 329 5 359 296 320
304 327 331 156 139 157 162 162 150 156 23 246 157 188 167 169 142 165 175 162 159 172 129 238 141 154 138 203 164 226 124 140 98 104 4 340 72 272 304 301 351 17 22 358 339
350 344 341 152 153 163 158 147 140 62 244 158 132 140 131 120 73 107 156 141 126 107 37 206 323 161 187 73 155 154 84 59 58 80 4 268 134 288 275 20 316 325 355 337 326
344 340 43 149 163 165 169 150 70 137 298 182 162 154 149 132 108 111 157 166 152 120 193 347 216 164 150 88 42 105 93 350 352 9 225 335 87 246 324 323 311 330 348 1 339
37 65 81 154 163 169 177 96 109 239 219 139 110 130 166 128 134 133 130 189 230 92 122 159 264 174 189 177 175 190 152 158 203 203 260 100 229 241 27 24 21 18 28 29 27
61 47 44 139 177 189 163 118 200 208 260 157 77 108 151 128 119 138 167 182 192 183 199 154 263 349 97 128 128 183 199 162 106 39 50 223 279 252 29 11 14 7 11 22 23
84 48 33 131 192 170 70 150 146 16 327 305 128 123 163 162 140 178 168 339 210 183 164 76 161 22 354 112 41 161 165 85 7 172 232 268 277 254 1 353 359 9 6 15 34
101 77 24 51 176 96 117 134 62 351 359 33 97 107 131 147 152 168 183 39 1 7 173 109 47 338 137 210 169 136 188 83 142 170 181 155 253 25 24 5 352 6 13 15 34
78 50 16 127 80 13 78 11 37 359 23 23 56 72 46 124 125 126 147 32 336 4 133 57 134 183 205 218 289 320 207 170 155 222 236 146 267 96 84 44 19 14 16 25 38
73 60 25 96 109 59 343 28 53 18 27 21 43 23 16 56 90 74 97 27 37 84 123 149 175 104 11 19 13 217 199 184 119 102 203 147 238 129 69 50 28 21 21 26 31
85 45 35 55 61 112 83 7 64 26 61 21 15 29 40 74 42 63 42 6 56 23 16 171 171 205 200 106 337 190 201 182 173 192 222 223 150 212 35 30 21 20 26 29 29
58 80 50 12 24 53 94 159 41 22 7 28 34 26 24 58 61 50 12 356 54 5 60 55 103 115 283 279 345 346 325 207 209 224 218 298 211 53 48 40 32 30 29 30 27
89 100 84 27 24 39 16 347 75 75 49 342 85 356 38 80 49 83 341 18 37 337 23 344 56 36 303 236 229 244 234 273 313 306 285 255 147 36 87 51 37 29 29 28 23
68 75 84 10 16 63 343 32 57 98 53 58 236 40 52 68 294 283 282 292 290 358 353 7 357 41 285 341 302 231 6 324 34 39 345 255 39 17 39 54 41 34 35 25 15